This is the latest recevied weather packets stored in our database for station/object EA1BVF-10. If no packets are shown the sender has not sent any weather packets the latest 10 day(s).
| Time | Temp. | Humidity | Pressure | Rain* | Wind** | Luminosity | Snow |
|---|---|---|---|---|---|---|---|
| 1788093347 | 12.22° C | 38% | 1036.8 hPa | - | - | - | - |
| 1788091546 | 12.22° C | 28% | 1036.5 hPa | - | - | - | - |
| 1788089747 | 11.67° C | 21% | 1036.5 hPa | - | - | - | - |
| 1788087946 | 11.67° C | 21% | 1036.6 hPa | - | - | - | - |
| 1788086145 | 11.67° C | 19% | 1036.5 hPa | - | - | - | - |
| 1788084347 | 11.67° C | 12% | 1036.4 hPa | - | - | - | - |
| 1788082545 | 11.67° C | 6% | 1036.3 hPa | - | - | - | - |
| 1788080747 | 11.67° C | 3% | 1036 hPa | - | - | - | - |
| 1788078945 | 11.67° C | 100% | 1035.7 hPa | - | - | - | - |
| 1788077147 | 11.67° C | 100% | 1035.5 hPa | - | - | - | - |
| 1788075347 | 11.67° C | 100% | 1035.3 hPa | - | - | - | - |
| 1788073545 | 11.11° C | 100% | 1035.1 hPa | - | - | - | - |
| 1788072610 | 11.67° C | 100% | 1035.3 hPa | - | - | - | - |
| 1788042143 | 13.33° C | 100% | 1037.1 hPa | - | - | - | - |
| 1788040344 | 13.33° C | 100% | 1037.3 hPa | - | - | - | - |
| 1788038543 | 13.33° C | 100% | 1037.2 hPa | - | - | - | - |
| 1788036743 | 13.33° C | 100% | 1037.2 hPa | - | - | - | - |
| 1788034948 | 13.33° C | 100% | 1037.2 hPa | - | - | - | - |
| 1788033143 | 13.33° C | 100% | 1037.1 hPa | - | - | - | - |
| 1788031343 | 13.33° C | 100% | 1036.6 hPa | - | - | - | - |
| 1788029543 | 13.33° C | 100% | 1036.6 hPa | - | - | - | - |
| 1788027742 | 13.33° C | 100% | 1036.9 hPa | - | - | - | - |
| 1788025942 | 13.33° C | 100% | 1037.2 hPa | - | - | - | - |
| 1788024142 | 13.33° C | 100% | 1037.2 hPa | - | - | - | - |
| 1788022342 | 13.33° C | 100% | 1037.2 hPa | - | - | - | - |
* Rain since midnight (hover to see other rain measurements)
** Current wind speed in m/s (hover to see current wind gust speed)